Find Starlink 32795

NORAD ID: 63042 Int'l Des: 2025-034 Owner: SPXS Country: US Constellation: starlink operational
LEOCIRCULAR

当前视图

正在加载3D地球...

About Starlink 32795

Starlink 32795 (NORAD 63042) is a starlink constellation satellite (v2 mini) launched Feb 18, 2025 by SPXS of US. It operates in LEO, CIRCULAR orbit with a mass of 730.00 kg.

即将过境

Passes for default location (London). Set your location on the main map for personalized predictions.

高度历史

Loading altitude history...

两行轨道根数

1 63042U 25034P 26264.25004630 .00032314 00000-0 96441-3 0 9999
2 63042 53.1579 65.9698 0001243 97.0816 185.3259 15.34366408 5885
Epoch: Sep 21, 2026 • Age: 6 hours

当前状态

高度 478.0 km
远地点 / 近地点 N/A
速度 7.63 km/s
星下点 -43.17°S, 165.06°W
发射日期 Feb 18, 2025
运行时间 1.5 years
类型 internet

技术详情

分类 Payload
质量 730.00 kg
干质量 700.00 kg
长度 0.30 m
跨度 29.00 m
形状 ? Box + pan
制造商 SPXS
平台类型 Starlink V2M
阶段状态 In Orbit
所有者/国家 SPXS/US

Most Searched